Vorticity
15 14 11 10 9 8 7 7 8 9 8 8 8 8 10 8 8 7 5 4 5 7 7 19 15 10 23 19 2 8 3 4 2 6 5 5 4 4
6 2 1 2 3 4 4 4 5 6 7 2 3 2 7 7 6 8 8 3 4 5 9 2 5 26 21 8 6 6 3 4 3 4 3 3 4 4
2 3 5 7 7 8 10 11 11 11 15 9 10 7 4 8 8 6 8 6 1 3 6 6 5 11 29 -3 21 9 5 2 4 0 2 2 5 7
12 14 12 10 12 14 15 15 15 13 18 20 14 16 12 7 11 9 5 5 8 2 6 12 7 7 13 30 -13 28 12 4 2 0 1 0 2 5
12 13 13 13 14 15 19 20 20 17 17 25 18 17 18 19 13 12 10 7 7 13 10 7 11 15 16 20 32 10 14 9 7 1 6 1 -1 2
15 24 31 35 33 32 30 35 37 34 33 27 34 30 33 30 30 26 24 17 8 11 13 14 15 13 9 4 -7 24 16 7 4 3 1 38 8 0
43 40 38 28 26 26 26 22 19 22 20 19 23 39 35 36 37 36 41 31 21 5 14 12 22 31 21 18 -18 26 2 14 3 5 -17 6 7 28
22 17 16 17 13 13 9 7 6 4 4 2 5 -2 1 14 13 22 37 45 33 13 19 21 30 -10 11 22 -10 -11 34 16 0 11 14 21 0 -9
15 7 9 11 8 5 8 14 15 4 3 2 14 12 10 5 3 6 23 22 55 23 16 12 18 -4 -8 23 32 -14 36 25 14 2 0 -5 14 8
8 9 9 10 9 9 8 11 8 6 6 6 14 14 9 7 10 9 2 23 37 44 23 15 30 29 27 -41 5 24 34 12 30 -7 -2 -10 8 3
4 7 10 9 7 7 16 16 10 6 14 13 12 9 11 12 12 7 22 4 19 29 33 13 18 21 24 26 25 4 3 31 41 35 29 26 -2 -21
7 7 11 21 26 16 11 19 16 27 31 29 7 4 1 3 9 7 7 19 14 25 18 29 8 21 23 28 -26 48 -10 25 8 14 24 15 16 15
19 18 17 11 19 16 23 12 21 25 26 25 29 32 29 17 19 10 4 14 18 33 8 29 6 20 23 13 8 21 -6 10 29 29 22 9 17 19
34 35 23 28 34 20 19 16 7 2 11 17 19 9 32 30 24 12 2 12 27 11 22 22 19 16 19 20 24 -32 -31 21 11 15 28 15 15 18
11 12 20 12 11 11 11 6 24 12 6 1 10 36 14 34 18 9 6 31 38 13 -10 35 23 17 19 9 38 3 -9 28 6 -2 -2 2 34 6
5 6 13 16 7 5 17 18 14 7 4 10 14 23 27 31 9 6 15 15 44 14 15 16 28 12 19 10 10 33 36 9 8 9 -2 15 16 9
26 33 30 22 21 8 30 -3 26 15 5 -4 38 47 31 20 14 8 25 27 26 12 22 17 24 23 15 18 6 36 -7 -23 -0 11 6 9 2 4
19 16 23 30 22 16 13 15 2 1 -4 -16 66 38 15 15 30 19 15 24 14 17 15 22 24 21 16 17 11 24 3 -14 13 -5 3 -0 15 4
15 13 12 13 20 22 12 10 7 9 23 10 32 41 30 22 15 13 16 18 14 20 9 16 26 24 20 13 16 8 24 12 3 2 2 -1 13 5
12 18 20 17 21 21 19 14 13 21 24 21 20 41 21 24 13 22 28 22 20 18 12 19 22 20 17 17 12 13 9 11 13 25 1 5 5 1
6 7 16 23 14 21 21 -1 17 23 27 9 10 29 35 25 28 12 10 14 18 21 21 21 18 16 19 21 14 13 7 7 8 12 17 15 5 10
7 8 8 12 16 19 24 18 7 7 23 2 11 16 9 31 27 24 35 25 9 8 14 17 21 17 15 23 13 16 11 8 5 8 10 7 10 19
8 7 7 6 5 6 11 14 20 10 -0 8 8 25 39 16 6 35 20 25 31 22 16 19 22 18 14 17 16 14 16 10 7 9 7 11 7 9
Height
5506 5506 5508 5508 5509 5510 5512 5512 5512 5519 5529 5536 5540 5545 5549 5555 5561 5568 5578 5586 5591 5600 5608 5616 5623 5629 5637 5642 5648 5656 5666 5673 5681 5686 5693 5699 5705 5711
5489 5489 5489 5489 5490 5491 5491 5491 5490 5492 5498 5511 5518 5521 5525 5530 5537 5543 5551 5561 5570 5577 5587 5596 5604 5611 5618 5626 5631 5638 5648 5656 5664 5671 5676 5684 5689 5695
5465 5464 5464 5462 5463 5463 5462 5464 5465 5465 5468 5487 5486 5494 5500 5506 5512 5520 5527 5536 5546 5554 5562 5572 5583 5590 5599 5605 5615 5620 5628 5637 5646 5654 5662 5668 5673 5680
5440 5435 5435 5436 5437 5436 5434 5434 5435 5438 5436 5453 5460 5465 5469 5479 5486 5491 5502 5510 5517 5527 5535 5546 5558 5570 5579 5587 5594 5604 5610 5618 5628 5637 5644 5653 5657 5666
5416 5412 5409 5405 5403 5403 5403 5406 5407 5409 5409 5412 5431 5434 5443 5450 5456 5463 5471 5481 5489 5496 5507 5519 5530 5544 5556 5567 5572 5580 5592 5599 5609 5618 5626 5635 5643 5650
5391 5388 5385 5380 5377 5377 5377 5380 5383 5385 5388 5388 5395 5406 5409 5419 5423 5434 5441 5449 5461 5469 5479 5491 5503 5516 5529 5543 5554 5560 5570 5582 5590 5601 5612 5615 5625 5633
5368 5364 5363 5361 5360 5360 5361 5366 5367 5370 5373 5374 5378 5383 5385 5390 5396 5404 5407 5418 5430 5443 5449 5462 5481 5493 5503 5517 5531 5541 5549 5562 5572 5582 5593 5597 5610 5617
5353 5352 5351 5350 5350 5350 5351 5354 5355 5357 5360 5362 5366 5371 5374 5375 5379 5381 5384 5389 5401 5416 5423 5434 5449 5462 5476 5492 5509 5520 5531 5541 5553 5563 5573 5583 5593 5602
5344 5343 5342 5341 5340 5340 5341 5342 5343 5345 5347 5348 5352 5355 5359 5362 5365 5366 5367 5368 5375 5389 5399 5413 5425 5440 5455 5474 5488 5501 5510 5521 5534 5544 5555 5565 5574 5584
5335 5333 5331 5330 5329 5328 5328 5329 5331 5332 5333 5335 5338 5340 5344 5347 5349 5351 5354 5357 5363 5371 5382 5395 5408 5422 5438 5455 5470 5479 5491 5503 5516 5526 5536 5546 5557 5565
5326 5323 5320 5318 5316 5314 5314 5314 5315 5317 5318 5320 5324 5327 5330 5333 5335 5336 5341 5345 5351 5359 5368 5380 5392 5406 5421 5436 5451 5464 5475 5487 5497 5510 5519 5530 5539 5547
5316 5312 5309 5305 5302 5301 5300 5301 5302 5302 5302 5304 5308 5311 5314 5318 5321 5324 5329 5331 5337 5347 5356 5364 5377 5389 5405 5420 5435 5447 5458 5471 5481 5492 5504 5513 5522 5529
5304 5300 5296 5294 5292 5290 5289 5289 5288 5288 5289 5290 5292 5294 5296 5300 5306 5310 5315 5319 5324 5333 5345 5351 5364 5375 5389 5407 5422 5433 5441 5456 5466 5477 5486 5496 5505 5515
5294 5289 5286 5283 5282 5282 5281 5280 5280 5281 5281 5281 5281 5281 5282 5284 5290 5295 5301 5307 5312 5321 5330 5337 5351 5363 5376 5389 5403 5417 5428 5441 5449 5457 5467 5479 5491 5502
5289 5286 5282 5280 5278 5276 5275 5275 5274 5274 5272 5271 5269 5268 5269 5271 5276 5282 5288 5293 5296 5308 5321 5327 5338 5350 5362 5377 5388 5400 5416 5427 5436 5445 5454 5466 5478 5488
5285 5282 5278 5276 5274 5273 5271 5270 5269 5268 5267 5264 5261 5258 5257 5259 5264 5270 5277 5280 5284 5294 5305 5315 5324 5338 5351 5364 5375 5388 5404 5417 5423 5433 5442 5452 5462 5474
5283 5278 5274 5271 5270 5269 5267 5266 5265 5263 5261 5257 5250 5245 5246 5250 5255 5261 5265 5268 5276 5284 5294 5306 5316 5329 5342 5351 5364 5378 5390 5401 5413 5421 5430 5440 5449 5457
5283 5278 5273 5268 5265 5265 5265 5264 5262 5260 5257 5251 5241 5237 5240 5244 5248 5252 5256 5261 5268 5277 5286 5296 5306 5317 5330 5342 5354 5367 5378 5390 5403 5412 5420 5427 5435 5443
5284 5280 5276 5271 5266 5264 5264 5264 5261 5258 5253 5248 5240 5235 5236 5240 5244 5247 5251 5256 5263 5271 5280 5288 5297 5306 5319 5332 5342 5353 5367 5380 5391 5401 5409 5417 5423 5431
5288 5283 5278 5274 5270 5268 5267 5266 5261 5256 5252 5247 5242 5238 5238 5239 5241 5244 5247 5252 5258 5265 5274 5282 5290 5298 5310 5321 5335 5346 5356 5367 5378 5388 5396 5404 5412 5419
5291 5287 5282 5278 5274 5271 5269 5268 5263 5257 5252 5249 5246 5242 5240 5240 5242 5244 5247 5251 5256 5263 5270 5277 5285 5294 5303 5314 5327 5338 5350 5359 5367 5376 5384 5394 5401 5408
5294 5290 5287 5283 5280 5276 5273 5271 5268 5263 5258 5255 5252 5249 5246 5244 5244 5245 5247 5251 5256 5262 5268 5273 5280 5288 5297 5309 5321 5332 5342 5350 5360 5369 5376 5383 5392 5398
5295 5293 5290 5287 5285 5282 5278 5274 5272 5270 5266 5263 5259 5255 5253 5251 5250 5249 5250 5252 5256 5260 5265 5270 5276 5284 5293 5301 5314 5325 5334 5344 5353 5360 5369 5376 5380 5384